Marfa, TX

2:51 AM CST on February 23, 2017 (GMT -0600)
Marfa Municipal

Weather History for KMRF - January, 2013

Change the Weather History Date:

Thursday, January 17, 2013

  Actual Average Record
Temperature  
Mean Temperature 36 °F -  
Max Temperature 53 °F 57 °F 73 °F (2000)
Min Temperature 19 °F 26 °F 15 °F (2006)
Degree Days  
Heating Degree Days 29    
Moisture  
Dew Point 20 °F    
Average Humidity 61    
Maximum Humidity 93    
Minimum Humidity 28    
Precipitation  
Precipitation 0.00 in - - ()
Sea Level Pressure  
Sea Level Pressure 30.46 in    
Wind  
Wind Speed 0 mph (North)    
Max Wind Speed 0 mph    
Max Gust Speed -    
Visibility 10 miles    
Events      
Averages and records for this station are not official NWS values.
T = Trace of Precipitation, MM = Missing Value Source: NWS Daily Summary

Daily Weather History Graph

Daily Weather History Graph

Search for Another Location

Airport or City:

Trip Planner

Search our weather history database for the weather conditions in past years. The results will help you decide how hot, cold, wet, or windy it might be!

Date:

Astronomy

Jan. 17, 2013 Rise Set
Actual Time 7:53 AM CST 6:19 PM CST
Civil Twilight 7:27 AM CST 6:45 PM CST
Nautical Twilight 6:57 AM CST 7:15 PM CST
Astronomical Twilight 6:28 AM CST 7:43 PM CST
Moon 11:32 AM CST (1/17) No Moon Set
Length of Visible Light 11h 18m
Length of Day
10h 26m
Waxing Crescent, 38% of the Moon is Illuminated
Jan 17
Waxing Crescent
Jan 18
First Quarter
Jan 26
Full
Feb 3
Last Quarter
Feb 10
New

Hourly Weather History & Observations

Time (CST) Temp. Dew Point Humidity Pressure Visibility Wind Dir Wind Speed Gust Speed Precip Events Conditions
12:15 AM 24.8 °F 12.2 °F 59% 30.40 in 10.0 mi North - - N/A   Clear
12:35 AM 21.2 °F 15.8 °F 80% 30.41 in 10.0 mi North - - N/A   Clear
12:55 AM 21.2 °F 15.8 °F 80% 30.40 in 10.0 mi North - - N/A   Clear
1:15 AM 23.0 °F 15.8 °F 74% 30.40 in 10.0 mi North - - N/A   Clear
1:35 AM 24.8 °F 15.8 °F 69% 30.41 in 10.0 mi North - - N/A   Clear
1:55 AM 21.2 °F 15.8 °F 80% 30.41 in 10.0 mi North - - N/A   Clear
2:15 AM 21.2 °F 15.8 °F 80% 30.42 in 10.0 mi North - - N/A   Clear
2:35 AM 23.0 °F 15.8 °F 74% 30.42 in 10.0 mi North - - N/A   Clear
2:55 AM 26.6 °F 17.6 °F 69% 30.42 in 10.0 mi North - - N/A   Clear
3:15 AM 24.8 °F 17.6 °F 74% 30.43 in 10.0 mi North - - N/A   Clear
3:35 AM 24.8 °F 15.8 °F 69% 30.43 in 10.0 mi North - - N/A   Clear
3:55 AM 23.0 °F 15.8 °F 74% 30.44 in 10.0 mi North - - N/A   Clear
4:15 AM 23.0 °F 17.6 °F 80% 30.44 in 10.0 mi North - - N/A   Clear
4:35 AM 21.2 °F 17.6 °F 86% 30.44 in 10.0 mi North - - N/A   Clear
4:55 AM 21.2 °F 17.6 °F 86% 30.44 in 10.0 mi North - - N/A   Clear
5:15 AM 19.4 °F 17.6 °F 93% 30.44 in 10.0 mi North - - N/A   Clear
5:35 AM 21.2 °F 19.4 °F 93% 30.44 in 10.0 mi North - - N/A   Clear
5:55 AM 21.2 °F 15.8 °F 80% 30.44 in 10.0 mi North - - N/A   Clear
6:15 AM 19.4 °F 15.8 °F 86% 30.45 in 10.0 mi North - - N/A   Clear
6:35 AM 21.2 °F 17.6 °F 86% 30.45 in 10.0 mi North - - N/A   Clear
6:55 AM 21.2 °F 17.6 °F 86% 30.45 in 10.0 mi North - - N/A   Clear
7:15 AM 21.2 °F 17.6 °F 86% 30.46 in 10.0 mi North - - N/A   Clear
7:35 AM 21.2 °F 17.6 °F 86% 30.46 in 10.0 mi North - - N/A   Clear
7:55 AM 21.2 °F 17.6 °F 86% 30.46 in 10.0 mi North - - N/A   Clear
8:15 AM 23.0 °F 19.4 °F 86% 30.47 in 10.0 mi North - - N/A   Clear
8:35 AM 24.8 °F 19.4 °F 80% 30.47 in 10.0 mi North - - N/A   Clear
8:55 AM 28.4 °F 24.8 °F 86% 30.48 in 10.0 mi North - - N/A   Clear
9:15 AM 33.8 °F 24.8 °F 70% 30.49 in 10.0 mi North - - N/A   Clear
9:35 AM 35.6 °F 24.8 °F 65% 30.50 in 10.0 mi North - - N/A   Clear
9:55 AM 39.2 °F 24.8 °F 56% 30.52 in 10.0 mi North - - N/A   Clear
10:15 AM 42.8 °F 24.8 °F 49% 30.52 in 10.0 mi North - - N/A   Clear
10:35 AM 42.8 °F 24.8 °F 49% 30.52 in 10.0 mi North - - N/A   Clear
10:55 AM 46.4 °F 24.8 °F 43% 30.52 in 10.0 mi North - - N/A   Clear
11:15 AM 46.4 °F 23.0 °F 40% 30.52 in 10.0 mi North - - N/A   Clear
11:35 AM 46.4 °F 24.8 °F 43% 30.52 in 10.0 mi North - - N/A   Clear
12:15 PM 50.0 °F 24.8 °F 37% 30.50 in 10.0 mi North - - N/A   Clear
12:35 PM 51.8 °F 24.8 °F 35% 30.49 in 10.0 mi North - - N/A   Clear
12:55 PM 51.8 °F 24.8 °F 35% 30.48 in 10.0 mi North - - N/A   Clear
1:15 PM 51.8 °F 24.8 °F 35% 30.47 in 10.0 mi North - - N/A   Clear
1:35 PM 51.8 °F 23.0 °F 33% 30.46 in 10.0 mi North - - N/A   Clear
1:55 PM 51.8 °F 24.8 °F 35% 30.44 in 10.0 mi North - - N/A   Clear
2:15 PM 53.6 °F 23.0 °F 30% 30.43 in 10.0 mi North - - N/A   Clear
2:35 PM 53.6 °F 23.0 °F 30% 30.42 in 10.0 mi North - - N/A   Clear
3:55 PM 53.6 °F 23.0 °F 30% 30.42 in 10.0 mi Calm Calm - N/A   Clear
4:15 PM 53.6 °F 23.0 °F 30% 30.42 in 10.0 mi Calm Calm - N/A   Clear
4:35 PM 53.6 °F 21.2 °F 28% 30.42 in 10.0 mi Calm Calm - N/A   Clear
4:55 PM 53.6 °F 21.2 °F 28% 30.42 in 10.0 mi Calm Calm - N/A   Clear
5:15 PM 51.8 °F 21.2 °F 30% 30.43 in 10.0 mi Calm Calm - N/A   Clear
5:35 PM 51.8 °F 19.4 °F 28% 30.44 in 10.0 mi Calm Calm - N/A   Clear
5:55 PM 48.2 °F 21.2 °F 34% 30.44 in 10.0 mi Calm Calm - N/A   Clear
6:15 PM 46.4 °F 19.4 °F 34% 30.45 in 10.0 mi Calm Calm - N/A   Clear
6:35 PM 44.6 °F 19.4 °F 37% 30.45 in 10.0 mi Calm Calm - N/A   Clear
6:55 PM 39.2 °F 19.4 °F 45% 30.46 in 10.0 mi Calm Calm - N/A   Clear
7:15 PM 39.2 °F 21.2 °F 49% 30.46 in 10.0 mi Calm Calm - N/A   Clear
7:35 PM 37.4 °F 21.2 °F 52% 30.47 in 10.0 mi Calm Calm - N/A   Clear
7:55 PM 35.6 °F 21.2 °F 56% 30.47 in 10.0 mi Calm Calm - N/A   Clear
8:15 PM 33.8 °F 21.2 °F 60% 30.48 in 10.0 mi Calm Calm - N/A   Clear
8:55 PM 33.8 °F 21.2 °F 60% 30.48 in 10.0 mi Calm Calm - N/A   Clear
9:15 PM 33.8 °F 21.2 °F 60% 30.48 in 10.0 mi Calm Calm - N/A   Clear
9:35 PM 33.8 °F 21.2 °F 60% 30.48 in 10.0 mi Calm Calm - N/A   Clear
9:55 PM 33.8 °F 21.2 °F 60% 30.48 in 10.0 mi Calm Calm - N/A   Clear
10:15 PM 33.8 °F 21.2 °F 60% 30.48 in 10.0 mi Calm Calm - N/A   Clear
10:35 PM 30.2 °F 21.2 °F 69% 30.47 in 10.0 mi Calm Calm - N/A   Clear
10:55 PM 30.2 °F 21.2 °F 69% 30.47 in 10.0 mi Calm Calm - N/A   Clear
11:15 PM 30.2 °F 21.2 °F 69% 30.47 in 10.0 mi Calm Calm - N/A   Clear
11:35 PM 26.6 °F 19.4 °F 74% 30.47 in 10.0 mi Calm Calm - N/A   Clear
11:55 PM 26.6 °F 21.2 °F 80% 30.46 in 10.0 mi Calm Calm - N/A   Clear